This demonstration page uses our WeatherBlox Daily Observations layout. Learn more.

Hourly Observations for January 3, 2020

Temp ( °F °C ) Dew Point ( °F °C ) Humidity (%) Winds ( mph kmh ) Pressure ( in mb ) Visibility ( mi km ) Precip ( " mm )
12:54 am 00:54 Clear 26 -3.3 23 -5 88 88 Calm 29.85 1011 10 16.0934 0 0
1:54 am 01:54 Clear 25 -3.9 22 -5.6 88 88 NW 3 6 29.87 1012 8 12.87472 0 0
2:54 am 02:54 Clear 23 -5 21 -6.1 92 92 S 3 6 29.89 1012 10 16.0934 0 0
3:54 am 03:54 Mostly Clear with Mist and Fog 25 -3.9 22 -5.6 88 88 Calm 29.88 1012 6 9.65604 0 0
4:54 am 04:54 Clear 24 -4.4 21 -6.1 88 88 Calm 29.89 1012 9 14.48406 0 0
5:54 am 05:54 Clear 24 -4.4 22 -5.6 91 91 Calm 29.9 1013 8 12.87472 0 0
6:54 am 06:54 Mostly Cloudy 26 -3.3 23 -5 88 88 Calm 29.91 1013 10 16.0934 0 0
7:54 am 07:54 Mostly Cloudy 27 -2.8 24 -4.4 89 89 Calm 29.93 1014 10 16.0934 0 0
8:54 am 08:54 Mostly Cloudy 36 2.2 30 -1.1 79 79 NW 8 13 29.96 1015 10 16.0934 0 0
9:54 am 09:54 Sunny 39 3.9 30 -1.1 70 70 NW 13 20 29.99 1016 10 16.0934 0 0
10:54 am 10:54 Sunny 42 5.6 29 -1.7 60 60 NW 20 31 30 1016 10 16.0934 0 0
11:54 am 11:54 Mostly Cloudy 42 5.6 27 -2.8 55 55 NW 22 35 29.98 1015 10 16.0934 0 0
12:54 pm 12:54 Mostly Cloudy 42 5.6 26 -3.3 53 53 NW 21 33 29.97 1015 10 16.0934 0 0
1:54 pm 13:54 Mostly Cloudy 42 5.6 23 -5 47 47 NW 22 35 29.96 1015 10 16.0934 0 0
2:54 pm 14:54 Sunny 40 4.4 21 -6.1 47 47 NW 25 41 29.98 1015 10 16.0934 0 0
3:54 pm 15:54 Sunny 39 3.9 17 -8.3 41 41 NW 28 44 30.01 1016 10 16.0934 0 0
4:54 pm 16:54 Sunny 36 2.2 18 -7.8 48 48 NW 17 28 30.04 1017 10 16.0934 0 0
5:54 pm 17:54 Clear 34 1.1 18 -7.8 52 52 NW 12 19 30.06 1018 10 16.0934 0 0
6:54 pm 18:54 Clear 33 0.6 18 -7.8 54 54 WNW 14 22 30.08 1019 10 16.0934 0 0
7:54 pm 19:54 Mostly Clear 32 0 18 -7.8 56 56 WNW 18 30 30.11 1020 10 16.0934 0 0
8:54 pm 20:54 Cloudy 32 0 18 -7.8 56 56 NW 16 26 30.12 1020 10 16.0934 0 0
9:54 pm 21:54 Cloudy 32 0 18 -7.8 56 56 NW 16 26 30.13 1020 10 16.0934 0 0
10:54 pm 22:54 Cloudy 31 -0.6 17 -8.3 56 56 NW 15 24 30.16 1021 10 16.0934 0 0
11:54 pm 23:54 Clear 29 -1.7 17 -8.3 61 61 WNW 10 17 30.18 1022 10 16.0934 0 0

Powered by AerisWeather